Regional Weather Roundup
Issued by NWS

Home | Current Version | Previous Version | Text Only | Print | Product List | Glossary Off
Versions: 1 2 3 4 5 6 7 8 9 10 11 12 13 14 15 16 17 18 19 20 21 22 23 24 25 26 27 28 29 30 31 32 33 34 35 36 37 38 39 40 41 42 43 44 45 46 47 48 49 50

000
ASUS43 KOAX 250510
RWRNE

WEATHER ROUNDUP FOR NEBRASKA
NATIONAL WEATHER SERVICE OMAHA NE
1200 AM CDT SAT APR 25 2015

NOTES: SATELLITE DATA IS BEING USED TO AUGMENT CLOUD COVER ABOVE
       12000 FEET.
       "FAIR" INDICATES FEW OR NO CLOUDS BELOW 12,000 FEET WITH NO
       SIGNIFICANT WEATHER AND/OR OBSTRUCTIONS TO VISIBILITY.

  * THESE STATIONS DO NOT REPORT WEATHER SUCH AS RAIN...SNOW OR FOG.

NEZ001>004-019>022-054>056-250600-
NEBRASKA PANHANDLE

CITY           SKY/WX    TMP DP  RH WIND       PRES   REMARKS
SCOTTSBLUFF    MOCLDY    49  42  77 SW8       29.63R
ALLIANCE       PTCLDY    47  42  83 N8        29.60F
CHADRON        PTCLDY    44  41  89 SW6       29.61F
KIMBALL        MOCLDY    49  38  64 W13       29.64S
SIDNEY         CLOUDY    52  37  56 W12       29.62R
$$

NEZ057>060-069>072-079>082-250600-
SOUTHWEST NEBRASKA

CITY           SKY/WX    TMP DP  RH WIND       PRES   REMARKS
IMPERIAL       CLOUDY    52  42  69 NE6       29.56R
LEXINGTON      CLOUDY    57  54  92 NE7       29.53F
MCCOOK         TSTM      58  55  90 E7        29.53  FOG
OGALLALA       MOCLDY    55  44  66 NW10      29.55S
$$

NEZ005>010-023>029-035>040-094-250600-
NORTH CENTRAL NEBRASKA

CITY           SKY/WX    TMP DP  RH WIND       PRES   REMARKS
VALENTINE      CLOUDY    56  46  69 N22G30    29.52F
AINSWORTH      CLOUDY    57  47  70 CALM      29.54S
BROKEN BOW     CLOUDY    54  45  71 E5        29.49F
O`NEILL        CLOUDY    59  56  88 SE9       29.51F
ORD            CLOUDY    56  46  69 E7        29.48F
THEDFORD       LGT RAIN  57  47  69 CALM      29.55F
$$

NEZ041-046>049-061>064-073>077-083>087-250600-
SOUTH CENTRAL NEBRASKA

CITY           SKY/WX    TMP DP  RH WIND       PRES   REMARKS
GRAND ISLAND   LGT RAIN  56  54  93 N7        29.51F FOG
AURORA         RAIN      56  55  97 N10       29.50F
HASTINGS       CLOUDY    56  54  93 N7        29.49F THUNDER FOG
HEBRON         TSTM      56  55  93 CALM      29.48F
HOLDREGE       CLOUDY    56  55  94 E8        29.52F THUNDER FOG
KEARNEY *      CLOUDY    55  54  94 NE8       29.53F
YORK           LGT RAIN  55  55 100 NE10      29.51S
$$

NEZ011>018-030>034-042>045-250600-
NORTHEAST NEBRASKA

CITY           SKY/WX    TMP DP  RH WIND       PRES   REMARKS
NORFOLK        CLOUDY    59  53  80 SE9       29.53F
ALBION         CLOUDY    59  53  80 SE13      29.53S
BLAIR          CLOUDY    56  51  85 E13       29.55S
COLUMBUS *     CLOUDY    55  48  76 E8        29.55F
FREMONT        CLOUDY    58  53  82 NE8       29.55F
TEKAMAH        CLOUDY    58  52  80 E12       29.56F
WAYNE          CLOUDY    56  51  82 SE7       29.56S
$$

NEZ050>053-065>068-078-088>093-250600-
SOUTHEAST NEBRASKA

CITY           SKY/WX    TMP DP  RH WIND       PRES   REMARKS
LINCOLN        LGT RAIN  57  54  89 NE9       29.50F
OMAHA EPPLEY   CLOUDY    58  53  84 E14       29.55F
BEATRICE       TSTM      56  55  96 E12G17    29.46S
FALLS CITY     CLOUDY    59  54  83 E17       29.47F
NEBRASKA CITY  LGT RAIN  56  53  90 E10       29.49F
PLATTSMOUTH    CLOUDY    56  52  86 E9        29.53S
$$

NEZ044-045-051>053-067-250600-
OMAHA AREA

CITY           SKY/WX    TMP DP  RH WIND       PRES   REMARKS
OMAHA EPPLEY   CLOUDY    58  53  84 E14       29.55F
BLAIR          CLOUDY    56  51  85 E13       29.55S
FREMONT        CLOUDY    58  53  82 NE8       29.55F
MILLARD        CLOUDY    58  53  85 E5        29.53F
OFFUTT AFB     CLOUDY    57  53  87 NE10      29.53F
PLATTSMOUTH    CLOUDY    56  52  86 E9        29.53S
WAHOO          CLOUDY    57  52  82 E9        29.53F
$$


USA.gov is the U.S. government's official web portal to all federal, state and local government web resources and services.